,,,PA_Meas_PMT16A,,PR_Meas_QMR101_102,,RH_Meas_QMH101,,SR_Meas_QMS101,,TA_Meas_QMH101,,GenWind,,GenWind,
date,time,status,PA,status,PR,status,RH,status,SR,status,TA,status,DirAvg,status,SpdAvg,
2014-03-15, 00:00:05,VALID,1010.58,VALID,0,VALID,93.8273,VALID,0,VALID,23.9084,VALID,321,VALID,0.0105469,
2014-03-15, 00:01:05,VALID,1010.57,VALID,0,VALID,94.1018,VALID,0,VALID,23.9084,VALID,321,VALID,0,
2014-03-15, 00:02:05,VALID,1010.59,VALID,0,VALID,94.5441,VALID,0,VALID,23.9084,VALID,321,VALID,0,
2014-03-15, 00:03:05,VALID,1010.6,VALID,0,VALID,95.0016,VALID,0,VALID,23.9084,VALID,321,VALID,0.467187,
2014-03-15, 00:04:05,VALID,1010.6,VALID,0,VALID,95.6498,VALID,0,VALID,23.9278,VALID,321,VALID,0.369141,
2014-03-15, 00:05:05,VALID,1010.6,VALID,0,VALID,96.1531,VALID,0,VALID,23.9278,VALID,321,VALID,0.490625,
2014-03-15, 00:06:05,VALID,1010.6,VALID,0,VALID,96.237,VALID,0,VALID,23.9084,VALID,321,VALID,0.562891,
2014-03-15, 00:07:05,VALID,1010.61,VALID,0,VALID,96.4277,VALID,0,VALID,23.9278,VALID,321,VALID,0.641797,
2014-03-15, 00:08:05,VALID,1010.61,VALID,0,VALID,96.6488,VALID,0,VALID,23.9084,VALID,321,VALID,0.258594,
2014-03-15, 00:09:05,VALID,1010.59,VALID,0,VALID,96.7403,VALID,0,VALID,23.9084,VALID,321,VALID,0.160156,
2014-03-15, 00:10:05,VALID,1010.6,VALID,0,VALID,96.9233,VALID,0,VALID,23.8871,VALID,321,VALID,0.398047,
2014-03-15, 00:11:05,VALID,1010.6,VALID,0,VALID,96.8318,VALID,0,VALID,23.9084,VALID,321,VALID,0.273828,
2014-03-15, 00:12:05,VALID,1010.57,VALID,0,VALID,96.8547,VALID,0,VALID,23.9084,VALID,321,VALID,0.557813,
2014-03-15, 00:13:05,VALID,1010.57,VALID,0,VALID,96.7327,VALID,0,VALID,23.9084,VALID,47,VALID,0.780859,
2014-03-15, 00:14:05,VALID,1010.59,VALID,0,VALID,96.7174,VALID,0,VALID,23.9084,VALID,47,VALID,0.483594,
2014-03-15, 00:15:05,VALID,1010.57,VALID,0,VALID,96.4353,VALID,0,VALID,23.9278,VALID,47,VALID,0.546875,
2014-03-15, 00:16:05,VALID,1010.54,VALID,0,VALID,96.3438,VALID,0,VALID,23.9278,VALID,47,VALID,0.341406,
2014-03-15, 00:17:05,VALID,1010.54,VALID,0,VALID,96.3361,VALID,0,VALID,23.9473,VALID,47,VALID,0.258984,
2014-03-15, 00:18:05,VALID,1010.48,VALID,0,VALID,96.4048,VALID,0,VALID,23.9473,VALID,47,VALID,0.411719,
2014-03-15, 00:19:05,VALID,1010.45,VALID,0,VALID,96.4124,VALID,0,VALID,23.9668,VALID,47,VALID,0.453516,
2014-03-15, 00:20:05,VALID,1010.42,VALID,0,VALID,95.871,VALID,0,VALID,23.965,VALID,47,VALID,0.440625,
2014-03-15, 00:21:05,VALID,1010.38,VALID,0,VALID,95.0169,VALID,0,VALID,24.0058,VALID,47,VALID,0.245312,
2014-03-15, 00:22:05,VALID,1010.33,VALID,0,VALID,94.6356,VALID,0,VALID,24.0058,VALID,47,VALID,0.504297,
2014-03-15, 00:23:05,VALID,1010.34,VALID,0,VALID,94.0865,VALID,0,VALID,24.0058,VALID,47,VALID,0.450781,
2014-03-15, 00:24:05,VALID,1010.33,VALID,0,VALID,94.3077,VALID,0,VALID,24.0058,VALID,47,VALID,0.0195313,
2014-03-15, 00:25:05,VALID,1010.33,VALID,0,VALID,94.2238,VALID,0,VALID,23.9863,VALID,47,VALID,0,
2014-03-15, 00:26:05,VALID,1010.34,VALID,0,VALID,94.2619,VALID,0,VALID,23.9863,VALID,47,VALID,0,
2014-03-15, 00:27:05,VALID,1010.35,VALID,0,VALID,95.055,VALID,0,VALID,24.0058,VALID,47,VALID,0,
2014-03-15, 00:28:05,VALID,1010.33,VALID,0,VALID,95.4516,VALID,0,VALID,23.9863,VALID,47,VALID,0,
2014-03-15, 00:29:05,VALID,1010.34,VALID,0,VALID,96.0387,VALID,0,VALID,24.0058,VALID,47,VALID,0.241797,
2014-03-15, 00:30:05,VALID,1010.33,VALID,0,VALID,96.298,VALID,0,VALID,23.9863,VALID,47,VALID,0.330078,
2014-03-15, 00:31:05,VALID,1010.31,VALID,0,VALID,96.1989,VALID,0,VALID,23.9668,VALID,47,VALID,0.122656,
2014-03-15, 00:32:05,VALID,1010.28,VALID,0,VALID,96.359,VALID,0,VALID,23.9473,VALID,47,VALID,0.107422,
2014-03-15, 00:33:05,VALID,1010.28,VALID,0,VALID,96.6259,VALID,0,VALID,23.9668,VALID,47,VALID,0.000390625,
2014-03-15, 00:34:05,VALID,1010.26,VALID,0,VALID,96.7403,VALID,0,VALID,23.9668,VALID,47,VALID,0.197656,
2014-03-15, 00:35:05,VALID,1010.29,VALID,0,VALID,96.7479,VALID,0,VALID,23.9668,VALID,47,VALID,0.526563,
2014-03-15, 00:36:05,VALID,1010.26,VALID,0,VALID,97.0606,VALID,0,VALID,23.9473,VALID,47,VALID,0.0449219,
2014-03-15, 00:37:05,VALID,1010.26,VALID,0,VALID,97.1521,VALID,0,VALID,23.9473,VALID,47,VALID,0.389062,
2014-03-15, 00:38:05,VALID,1010.23,VALID,0,VALID,97.0148,VALID,0,VALID,23.9278,VALID,47,VALID,0.436719,
2014-03-15, 00:39:05,VALID,1010.25,VALID,0,VALID,97.1445,VALID,0,VALID,23.9084,VALID,47,VALID,0.445313,
2014-03-15, 00:40:05,VALID,1010.24,VALID,0,VALID,97.3961,VALID,0,VALID,23.8889,VALID,47,VALID,0.00234375,
2014-03-15, 00:41:05,VALID,1010.2,VALID,0,VALID,97.4419,VALID,0,VALID,23.8889,VALID,47,VALID,0.141016,
2014-03-15, 00:42:05,VALID,1010.17,VALID,0,VALID,97.602,VALID,0,VALID,23.8889,VALID,46,VALID,0.107813,
2014-03-15, 00:43:05,VALID,1010.18,VALID,0,VALID,97.7622,VALID,0,VALID,23.8694,VALID,48,VALID,0.00117188,
2014-03-15, 00:44:05,VALID,1010.12,VALID,0,VALID,97.8918,VALID,0,VALID,23.8694,VALID,47,VALID,0,
2014-03-15, 00:45:05,VALID,1010.12,VALID,0,VALID,98.0443,VALID,0,VALID,23.8889,VALID,47,VALID,0,
2014-03-15, 00:46:05,VALID,1010.1,VALID,0,VALID,98.1206,VALID,0,VALID,23.8676,VALID,47,VALID,0,
2014-03-15, 00:47:05,VALID,1010.08,VALID,0,VALID,98.1663,VALID,0,VALID,23.8889,VALID,47,VALID,0,
2014-03-15, 00:48:05,VALID,1010.1,VALID,0,VALID,98.2197,VALID,0,VALID,23.8481,VALID,47,VALID,0.183594,
2014-03-15, 00:49:05,VALID,1010.09,VALID,0,VALID,98.2197,VALID,0,VALID,23.8889,VALID,47,VALID,0.0546875,
2014-03-15, 00:50:05,VALID,1010.06,VALID,0,VALID,98.174,VALID,0,VALID,23.8676,VALID,47,VALID,0,
2014-03-15, 00:51:05,VALID,1010.08,VALID,0,VALID,98.3112,VALID,0,VALID,23.8889,VALID,47,VALID,0,
2014-03-15, 00:52:05,VALID,1010.05,VALID,0,VALID,98.5019,VALID,0.112112,VALID,23.8676,VALID,47,VALID,0,
2014-03-15, 00:53:05,VALID,1010.02,VALID,0,VALID,98.6086,VALID,0,VALID,23.8871,VALID,47,VALID,0,
2014-03-15, 00:54:05,VALID,1010.01,VALID,0,VALID,98.6162,VALID,0.112112,VALID,23.9084,VALID,47,VALID,0,
2014-03-15, 00:55:05,VALID,1010.01,VALID,0,VALID,98.6239,VALID,0,VALID,23.9065,VALID,47,VALID,0,
2014-03-15, 00:56:05,VALID,1009.96,VALID,0,VALID,98.6315,VALID,0,VALID,23.9084,VALID,47,VALID,0,
2014-03-15, 00:57:05,VALID,1009.97,VALID,0,VALID,98.6391,VALID,0.112112,VALID,23.9065,VALID,47,VALID,0,
2014-03-15, 00:58:05,VALID,1009.96,VALID,0,VALID,98.2807,VALID,0,VALID,23.8871,VALID,47,VALID,0,
2014-03-15, 00:59:05,VALID,1009.93,VALID,0,VALID,98.3493,VALID,0,VALID,23.9084,VALID,47,VALID,0,
2014-03-15, 01:00:05,VALID,1009.96,VALID,0,VALID,98.4408,VALID,0.112112,VALID,23.9065,VALID,47,VALID,0.283203,
2014-03-15, 01:01:05,VALID,1009.92,VALID,0,VALID,98.5857,VALID,0.112112,VALID,23.9278,VALID,48,VALID,0.19375,
2014-03-15, 01:02:05,VALID,1009.94,VALID,0,VALID,98.6696,VALID,0,VALID,23.9065,VALID,47,VALID,0.138281,
2014-03-15, 01:03:05,VALID,1009.95,VALID,0,VALID,98.7916,VALID,0,VALID,23.9084,VALID,47,VALID,0.0148437,
2014-03-15, 01:04:05,VALID,1009.95,VALID,0,VALID,98.8526,VALID,0,VALID,23.8889,VALID,47,VALID,0.235156,
2014-03-15, 01:05:05,VALID,1009.97,VALID,0,VALID,98.9594,VALID,0.112112,VALID,23.8694,VALID,47,VALID,0.378516,
2014-03-15, 01:06:05,VALID,1009.95,VALID,0,VALID,99.1729,VALID,0,VALID,23.8676,VALID,47,VALID,0,
2014-03-15, 01:07:05,VALID,1009.96,VALID,0,VALID,99.4856,VALID,0,VALID,23.9084,VALID,47,VALID,0,
2014-03-15, 01:08:05,VALID,1009.97,VALID,0,VALID,99.5618,VALID,0,VALID,23.8676,VALID,47,VALID,0.04375,
2014-03-15, 01:09:05,VALID,1009.92,VALID,0,VALID,99.4856,VALID,0,VALID,23.8889,VALID,47,VALID,0.351953,
2014-03-15, 01:10:05,VALID,1009.94,VALID,0,VALID,99.5847,VALID,0,VALID,23.8871,VALID,47,VALID,0.128125,
2014-03-15, 01:11:05,VALID,1009.91,VALID,0,VALID,99.5313,VALID,0.112112,VALID,23.9278,VALID,47,VALID,0.103516,
2014-03-15, 01:12:05,VALID,1009.85,VALID,0,VALID,99.4398,VALID,0,VALID,23.9278,VALID,47,VALID,0,
2014-03-15, 01:13:05,VALID,1009.85,VALID,0,VALID,99.3331,VALID,0,VALID,23.9473,VALID,47,VALID,0.319531,
2014-03-15, 01:14:05,VALID,1009.82,VALID,0,VALID,99.0433,VALID,0,VALID,23.9278,VALID,47,VALID,0.164453,
2014-03-15, 01:15:05,VALID,1009.81,VALID,0,VALID,98.5476,VALID,0,VALID,23.9473,VALID,47,VALID,0.00585938,
2014-03-15, 01:16:05,VALID,1009.81,VALID,0,VALID,98.3646,VALID,0.112112,VALID,23.9455,VALID,47,VALID,0.364453,
2014-03-15, 01:17:05,VALID,1009.81,VALID,0,VALID,97.9757,VALID,0,VALID,23.9668,VALID,47,VALID,0,
2014-03-15, 01:18:05,VALID,1009.77,VALID,0,VALID,97.663,VALID,0,VALID,23.9455,VALID,47,VALID,0,
2014-03-15, 01:19:05,VALID,1009.77,VALID,0,VALID,97.3122,VALID,0,VALID,23.9863,VALID,47,VALID,0,
2014-03-15, 01:20:05,VALID,1009.78,VALID,0,VALID,97.0453,VALID,0,VALID,23.9863,VALID,47,VALID,0,
2014-03-15, 01:21:05,VALID,1009.77,VALID,0,VALID,97.2207,VALID,0.112112,VALID,23.9845,VALID,47,VALID,0,
2014-03-15, 01:22:05,VALID,1009.74,VALID,0,VALID,96.115,VALID,0,VALID,23.9845,VALID,47,VALID,0,
2014-03-15, 01:23:05,VALID,1009.73,VALID,0,VALID,96.7098,VALID,0,VALID,24.004,VALID,48,VALID,0,
2014-03-15, 01:24:05,VALID,1009.74,VALID,0,VALID,96.8776,VALID,0,VALID,24.0253,VALID,47,VALID,0,
2014-03-15, 01:25:05,VALID,1009.71,VALID,0,VALID,96.9843,VALID,0,VALID,24.0253,VALID,47,VALID,0.197656,
2014-03-15, 01:26:04,VALID,1009.73,VALID,0,VALID,97.4953,VALID,0.112112,VALID,24.0253,VALID,46,VALID,0.134375,
2014-03-15, 01:27:04,VALID,1009.72,VALID,0,VALID,98.235,VALID,0,VALID,24.004,VALID,47,VALID,0.544141,
2014-03-15, 01:28:04,VALID,1009.75,VALID,0,VALID,97.7317,VALID,0,VALID,24.0253,VALID,47,VALID,0.719141,
2014-03-15, 01:29:04,VALID,1009.76,VALID,0,VALID,97.8155,VALID,0,VALID,24.0253,VALID,47,VALID,0.3875,
2014-03-15, 01:30:04,VALID,1009.76,VALID,0,VALID,97.1368,VALID,0.112112,VALID,24.0643,VALID,47,VALID,0.377734,
2014-03-15, 01:31:04,VALID,1009.75,VALID,0,VALID,96.1913,VALID,0,VALID,24.0235,VALID,47,VALID,0.296875,
2014-03-15, 01:32:04,VALID,1009.77,VALID,0,VALID,95.2838,VALID,0,VALID,24.0448,VALID,47,VALID,0.351563,
2014-03-15, 01:33:04,VALID,1009.77,VALID,0,VALID,94.4602,VALID,0.112112,VALID,24.0235,VALID,47,VALID,0.211328,
2014-03-15, 01:34:04,VALID,1009.75,VALID,0,VALID,93.7053,VALID,0,VALID,24.0429,VALID,47,VALID,0,
2014-03-15, 01:35:04,VALID,1009.75,VALID,0,VALID,93.6442,VALID,0,VALID,24.0643,VALID,47,VALID,0,
2014-03-15, 01:36:04,VALID,1009.79,VALID,0,VALID,94.1323,VALID,0,VALID,24.1032,VALID,47,VALID,0.217969,
2014-03-15, 01:37:04,VALID,1009.77,VALID,0,VALID,94.9559,VALID,0,VALID,24.1227,VALID,48,VALID,0.00507812,
2014-03-15, 01:38:04,VALID,1009.77,VALID,0,VALID,94.445,VALID,0.112112,VALID,24.1227,VALID,47,VALID,0.397266,
2014-03-15, 01:39:04,VALID,1009.76,VALID,0,VALID,94.3077,VALID,0,VALID,24.1422,VALID,48,VALID,0.732422,
2014-03-15, 01:40:04,VALID,1009.78,VALID,0,VALID,93.568,VALID,0,VALID,24.1227,VALID,48,VALID,0.897656,
2014-03-15, 01:41:04,VALID,1009.78,VALID,0,VALID,93.0189,VALID,0.112112,VALID,24.1227,VALID,47,VALID,0.600391,
2014-03-15, 01:42:04,VALID,1009.79,VALID,0,VALID,93.1943,VALID,0,VALID,24.1227,VALID,48,VALID,0.494531,
2014-03-15, 01:43:04,VALID,1009.78,VALID,0,VALID,93.4155,VALID,0,VALID,24.1227,VALID,47,VALID,0.357812,
2014-03-15, 01:44:04,VALID,1009.78,VALID,0,VALID,93.446,VALID,0,VALID,24.1635,VALID,47,VALID,0.4,
2014-03-15, 01:45:04,VALID,1009.79,VALID,0,VALID,93.4841,VALID,0,VALID,24.1617,VALID,48,VALID,0.121875,
2014-03-15, 01:46:04,VALID,1009.81,VALID,0,VALID,94.1323,VALID,0,VALID,24.1617,VALID,48,VALID,0,
2014-03-15, 01:47:04,VALID,1009.81,VALID,0,VALID,93.9569,VALID,0,VALID,24.1617,VALID,47,VALID,0.543359,
2014-03-15, 01:48:04,VALID,1009.8,VALID,0,VALID,93.5604,VALID,0,VALID,24.1617,VALID,46,VALID,0.227734,
2014-03-15, 01:49:04,VALID,1009.8,VALID,0,VALID,92.8054,VALID,0,VALID,24.1812,VALID,47,VALID,0.420703,
2014-03-15, 01:50:04,VALID,1009.76,VALID,0,VALID,92.7063,VALID,0,VALID,24.1812,VALID,47,VALID,0.137109,
2014-03-15, 01:51:04,VALID,1009.73,VALID,0,VALID,92.7597,VALID,0,VALID,24.2007,VALID,47,VALID,0,
2014-03-15, 01:52:04,VALID,1009.74,VALID,0,VALID,92.1649,VALID,0,VALID,24.1812,VALID,47,VALID,0,
2014-03-15, 01:53:04,VALID,1009.71,VALID,0,VALID,92.0962,VALID,0,VALID,24.2007,VALID,47,VALID,0,
2014-03-15, 01:54:04,VALID,1009.7,VALID,0,VALID,92.7749,VALID,0,VALID,24.2415,VALID,47,VALID,0,
2014-03-15, 01:55:04,VALID,1009.67,VALID,0,VALID,93.1105,VALID,0,VALID,24.2202,VALID,47,VALID,0.423828,
2014-03-15, 01:56:04,VALID,1009.64,VALID,0,VALID,92.4928,VALID,0,VALID,24.2007,VALID,47,VALID,0.543359,
2014-03-15, 01:57:04,VALID,1009.58,VALID,0,VALID,93.0342,VALID,0,VALID,24.1617,VALID,47,VALID,0.617188,
2014-03-15, 01:58:04,VALID,1009.55,VALID,0,VALID,94.4373,VALID,0,VALID,24.1422,VALID,47,VALID,0.591797,
2014-03-15, 01:59:04,VALID,1009.5,VALID,0,VALID,95.2685,VALID,0,VALID,24.1227,VALID,47,VALID,0.557031,
2014-03-15, 02:00:04,VALID,1009.47,VALID,0,VALID,95.5507,VALID,0,VALID,24.0837,VALID,47,VALID,0.482812,
2014-03-15, 02:01:04,VALID,1009.46,VALID,0,VALID,96.6183,VALID,0,VALID,24.0837,VALID,47,VALID,0.226953,
2014-03-15, 02:02:04,VALID,1009.43,VALID,0,VALID,97.4724,VALID,0,VALID,24.0837,VALID,47,VALID,0.254297,
2014-03-15, 02:03:04,VALID,1009.44,VALID,0,VALID,97.9452,VALID,0,VALID,24.0856,VALID,47,VALID,0.153516,
2014-03-15, 02:04:04,VALID,1009.47,VALID,0,VALID,98.54,VALID,0,VALID,24.0643,VALID,47,VALID,0,
2014-03-15, 02:05:04,VALID,1009.46,VALID,0,VALID,98.9518,VALID,0,VALID,24.0448,VALID,48,VALID,0,
2014-03-15, 02:06:04,VALID,1009.47,VALID,0,VALID,98.9137,VALID,0,VALID,24.0661,VALID,47,VALID,0,
2014-03-15, 02:07:04,VALID,1009.47,VALID,0,VALID,98.9594,VALID,0,VALID,24.0448,VALID,47,VALID,0.281641,
2014-03-15, 02:08:04,VALID,1009.48,VALID,0,VALID,99.2263,VALID,0,VALID,24.0448,VALID,47,VALID,0.303906,
2014-03-15, 02:09:04,VALID,1009.43,VALID,0,VALID,99.5085,VALID,0,VALID,24.0253,VALID,47,VALID,0.252734,
2014-03-15, 02:10:04,VALID,1009.43,VALID,0,VALID,99.6076,VALID,0,VALID,23.9863,VALID,47,VALID,0.287891,
2014-03-15, 02:11:04,VALID,1009.39,VALID,0,VALID,99.8745,VALID,0,VALID,23.9863,VALID,47,VALID,0,
2014-03-15, 02:12:04,VALID,1009.34,VALID,0,VALID,100.157,VALID,0,VALID,23.9668,VALID,47,VALID,0.0585938,
2014-03-15, 02:13:04,VALID,1009.3,VALID,0,VALID,100.317,VALID,0,VALID,23.9473,VALID,47,VALID,0.210938,
2014-03-15, 02:14:04,VALID,1009.31,VALID,0,VALID,100.561,VALID,0,VALID,23.9278,VALID,47,VALID,0.105859,
2014-03-15, 02:15:04,VALID,1009.32,VALID,0,VALID,100.713,VALID,0,VALID,23.9278,VALID,47,VALID,0.16875,
2014-03-15, 02:16:04,VALID,1009.31,VALID,0,VALID,100.988,VALID,0,VALID,23.9278,VALID,47,VALID,0.263281,
2014-03-15, 02:17:04,VALID,1009.34,VALID,0,VALID,101.232,VALID,0,VALID,23.9278,VALID,47,VALID,0.366797,
2014-03-15, 02:18:04,VALID,1009.39,VALID,0,VALID,101.651,VALID,0,VALID,23.9278,VALID,47,VALID,0.738281,
2014-03-15, 02:19:04,VALID,1009.38,VALID,0,VALID,102.01,VALID,0,VALID,23.9278,VALID,47,VALID,0.950781,
2014-03-15, 02:20:04,VALID,1009.42,VALID,0,VALID,102.109,VALID,0,VALID,23.9473,VALID,47,VALID,0.810547,
2014-03-15, 02:21:04,VALID,1009.4,VALID,0,VALID,102.101,VALID,0,VALID,23.9668,VALID,47,VALID,0.763281,
2014-03-15, 02:22:04,VALID,1009.39,VALID,0,VALID,101.949,VALID,0,VALID,23.9668,VALID,47,VALID,0.827734,
2014-03-15, 02:23:04,VALID,1009.39,VALID,0,VALID,101.705,VALID,0,VALID,23.9668,VALID,47,VALID,0.706641,
2014-03-15, 02:24:04,VALID,1009.35,VALID,0,VALID,101.362,VALID,0,VALID,23.9863,VALID,47,VALID,0.433984,
2014-03-15, 02:25:04,VALID,1009.35,VALID,0,VALID,101.262,VALID,0,VALID,24.0076,VALID,47,VALID,0.230469,
2014-03-15, 02:26:04,VALID,1009.34,VALID,0,VALID,101.24,VALID,0,VALID,24.0271,VALID,47,VALID,0.269141,
2014-03-15, 02:27:04,VALID,1009.39,VALID,0,VALID,101.362,VALID,0,VALID,24.0253,VALID,47,VALID,0.159766,
2014-03-15, 02:28:04,VALID,1009.4,VALID,0,VALID,101.026,VALID,0,VALID,24.0058,VALID,47,VALID,0.599219,
2014-03-15, 02:29:04,VALID,1009.48,VALID,0,VALID,101.049,VALID,0,VALID,23.9863,VALID,47,VALID,0.333984,
2014-03-15, 02:30:04,VALID,1009.54,VALID,0,VALID,101.438,VALID,0,VALID,23.9863,VALID,47,VALID,0,
2014-03-15, 02:31:04,VALID,1009.55,VALID,0,VALID,101.545,VALID,0,VALID,24.0076,VALID,47,VALID,0.178125,
2014-03-15, 02:32:04,VALID,1009.59,VALID,0,VALID,101.598,VALID,0,VALID,23.9668,VALID,47,VALID,0.31875,
2014-03-15, 02:33:04,VALID,1009.6,VALID,0,VALID,101.674,VALID,0,VALID,23.9668,VALID,47,VALID,0.345313,
2014-03-15, 02:34:04,VALID,1009.62,VALID,0,VALID,101.667,VALID,0,VALID,23.9668,VALID,47,VALID,0.501953,
2014-03-15, 02:35:04,VALID,1009.62,VALID,0,VALID,101.758,VALID,0,VALID,23.9473,VALID,47,VALID,0,
2014-03-15, 02:36:04,VALID,1009.59,VALID,0,VALID,101.766,VALID,0,VALID,23.9473,VALID,47,VALID,0.339453,
2014-03-15, 02:37:04,VALID,1009.6,VALID,0,VALID,101.651,VALID,0,VALID,23.9473,VALID,47,VALID,0.0285156,
2014-03-15, 02:38:04,VALID,1009.58,VALID,0,VALID,101.628,VALID,0,VALID,23.9278,VALID,47,VALID,0.217187,
2014-03-15, 02:39:04,VALID,1009.57,VALID,0,VALID,101.468,VALID,0,VALID,23.9278,VALID,47,VALID,0.284766,
2014-03-15, 02:40:04,VALID,1009.57,VALID,0,VALID,101.506,VALID,0,VALID,23.9686,VALID,47,VALID,0.0957031,
2014-03-15, 02:41:04,VALID,1009.57,VALID,0,VALID,101.293,VALID,0,VALID,23.9278,VALID,47,VALID,0.194922,
2014-03-15, 02:42:04,VALID,1009.62,VALID,0,VALID,101.346,VALID,0,VALID,23.9473,VALID,47,VALID,0.103906,
2014-03-15, 02:43:04,VALID,1009.65,VALID,0,VALID,101.43,VALID,0.112112,VALID,23.9473,VALID,47,VALID,0.173047,
2014-03-15, 02:44:04,VALID,1009.65,VALID,0,VALID,101.781,VALID,0,VALID,23.9473,VALID,47,VALID,0.220703,
2014-03-15, 02:45:04,VALID,1009.65,VALID,0,VALID,102.116,VALID,0,VALID,23.9668,VALID,47,VALID,0.149219,
2014-03-15, 02:46:04,VALID,1009.67,VALID,0,VALID,102.132,VALID,0,VALID,23.9473,VALID,47,VALID,0.304297,
2014-03-15, 02:47:04,VALID,1009.63,VALID,0,VALID,102.155,VALID,0,VALID,23.9278,VALID,47,VALID,0.371094,
2014-03-15, 02:48:04,VALID,1009.64,VALID,0,VALID,102.132,VALID,0,VALID,23.9278,VALID,47,VALID,0.282031,
2014-03-15, 02:49:04,VALID,1009.64,VALID,0,VALID,102.017,VALID,0,VALID,23.9065,VALID,47,VALID,0.398438,
2014-03-15, 02:50:04,VALID,1009.63,VALID,0,VALID,101.964,VALID,0,VALID,23.9084,VALID,48,VALID,0.398047,
2014-03-15, 02:51:04,VALID,1009.62,VALID,0,VALID,101.834,VALID,0,VALID,23.8871,VALID,47,VALID,0.398047,
2014-03-15, 02:52:04,VALID,1009.62,VALID,0,VALID,101.667,VALID,0,VALID,23.8676,VALID,47,VALID,0.350781,
2014-03-15, 02:53:04,VALID,1009.62,VALID,0,VALID,101.682,VALID,0,VALID,23.9084,VALID,47,VALID,0.625781,
2014-03-15, 02:54:04,VALID,1009.64,VALID,0,VALID,101.583,VALID,0,VALID,23.9084,VALID,47,VALID,0.358984,
2014-03-15, 02:55:04,VALID,1009.61,VALID,0,VALID,101.613,VALID,0,VALID,23.8676,VALID,47,VALID,0.325781,
2014-03-15, 02:56:04,VALID,1009.62,VALID,0,VALID,101.872,VALID,0,VALID,23.8889,VALID,47,VALID,0.117969,
2014-03-15, 02:57:04,VALID,1009.6,VALID,0,VALID,101.933,VALID,0,VALID,23.9084,VALID,47,VALID,0.169531,
2014-03-15, 02:58:04,VALID,1009.58,VALID,0,VALID,102.025,VALID,0,VALID,23.9084,VALID,47,VALID,0.223438,
2014-03-15, 02:59:04,VALID,1009.57,VALID,0,VALID,102.124,VALID,0,VALID,23.9084,VALID,47,VALID,0.246484,
2014-03-15, 03:00:04,VALID,1009.53,VALID,0,VALID,101.85,VALID,0,VALID,23.9084,VALID,47,VALID,0.775,
2014-03-15, 03:01:04,VALID,1009.5,VALID,0,VALID,101.766,VALID,0,VALID,23.9084,VALID,47,VALID,0.377734,
2014-03-15, 03:02:04,VALID,1009.47,VALID,0,VALID,101.575,VALID,0,VALID,23.9278,VALID,47,VALID,0.2125,
2014-03-15, 03:03:04,VALID,1009.45,VALID,0,VALID,101.346,VALID,0,VALID,23.9278,VALID,47,VALID,0.245703,
2014-03-15, 03:04:04,VALID,1009.4,VALID,0,VALID,100.79,VALID,0,VALID,23.9278,VALID,47,VALID,0,
2014-03-15, 03:05:04,VALID,1009.4,VALID,0,VALID,100.5,VALID,0,VALID,23.9278,VALID,47,VALID,0,
2014-03-15, 03:06:04,VALID,1009.39,VALID,0,VALID,100.195,VALID,0,VALID,23.9473,VALID,47,VALID,0,
2014-03-15, 03:07:04,VALID,1009.37,VALID,0,VALID,99.8974,VALID,0,VALID,23.9473,VALID,47,VALID,0,
2014-03-15, 03:08:04,VALID,1009.36,VALID,0,VALID,99.844,VALID,0,VALID,23.9473,VALID,47,VALID,0,
2014-03-15, 03:09:04,VALID,1009.32,VALID,0,VALID,100.012,VALID,0,VALID,23.9455,VALID,47,VALID,0,
2014-03-15, 03:10:04,VALID,1009.32,VALID,0,VALID,99.7982,VALID,0,VALID,23.9863,VALID,47,VALID,0,
2014-03-15, 03:11:04,VALID,1009.31,VALID,0,VALID,100.004,VALID,0,VALID,23.9863,VALID,47,VALID,0,
2014-03-15, 03:12:04,VALID,1009.31,VALID,0,VALID,99.905,VALID,0.112112,VALID,23.9863,VALID,47,VALID,0,
2014-03-15, 03:13:04,VALID,1009.3,VALID,0,VALID,99.6762,VALID,0,VALID,23.9863,VALID,47,VALID,0,
2014-03-15, 03:14:04,VALID,1009.31,VALID,0,VALID,99.5008,VALID,0,VALID,23.9863,VALID,47,VALID,0,
2014-03-15, 03:15:04,VALID,1009.31,VALID,0,VALID,99.0967,VALID,0,VALID,23.965,VALID,47,VALID,0,
2014-03-15, 03:16:04,VALID,1009.35,VALID,0,VALID,99.1805,VALID,0,VALID,23.9863,VALID,47,VALID,0,
2014-03-15, 03:17:04,VALID,1009.31,VALID,0,VALID,98.9365,VALID,0.112112,VALID,24.0058,VALID,47,VALID,0,
2014-03-15, 03:18:04,VALID,1009.31,VALID,0,VALID,98.5857,VALID,0,VALID,23.965,VALID,47,VALID,0,
2014-03-15, 03:19:04,VALID,1009.32,VALID,0,VALID,98.4942,VALID,0,VALID,23.9863,VALID,47,VALID,0,
2014-03-15, 03:20:04,VALID,1009.33,VALID,0,VALID,98.3417,VALID,0,VALID,23.9863,VALID,47,VALID,0,
2014-03-15, 03:21:04,VALID,1009.29,VALID,0,VALID,98.8679,VALID,0,VALID,24.0058,VALID,47,VALID,0,
2014-03-15, 03:22:04,VALID,1009.27,VALID,0,VALID,98.9365,VALID,0,VALID,23.9845,VALID,47,VALID,0,
2014-03-15, 03:23:04,VALID,1009.27,VALID,0,VALID,98.8374,VALID,0,VALID,23.965,VALID,47,VALID,0,
2014-03-15, 03:24:04,VALID,1009.24,VALID,0,VALID,98.7688,VALID,0,VALID,23.9668,VALID,47,VALID,0,
2014-03-15, 03:25:04,VALID,1009.24,VALID,0,VALID,99.1195,VALID,0,VALID,23.9473,VALID,47,VALID,0,
2014-03-15, 03:26:04,VALID,1009.25,VALID,0,VALID,99.6305,VALID,0,VALID,23.926,VALID,47,VALID,0,
2014-03-15, 03:27:04,VALID,1009.29,VALID,0,VALID,100.309,VALID,0,VALID,23.9473,VALID,47,VALID,0,
2014-03-15, 03:28:04,VALID,1009.3,VALID,0,VALID,100.843,VALID,0,VALID,23.9278,VALID,47,VALID,0,
2014-03-15, 03:29:04,VALID,1009.33,VALID,0,VALID,101.384,VALID,0,VALID,23.9065,VALID,47,VALID,0,
2014-03-15, 03:30:04,VALID,1009.35,VALID,0,VALID,101.956,VALID,0,VALID,23.9473,VALID,47,VALID,0,
2014-03-15, 03:31:04,VALID,1009.37,VALID,0,VALID,102.345,VALID,0,VALID,23.9473,VALID,47,VALID,0,
2014-03-15, 03:32:04,VALID,1009.35,VALID,0,VALID,102.65,VALID,0,VALID,23.9668,VALID,47,VALID,0,
2014-03-15, 03:33:04,VALID,1009.34,VALID,0,VALID,102.879,VALID,0,VALID,23.9455,VALID,47,VALID,0,
2014-03-15, 03:34:04,VALID,1009.34,VALID,0,VALID,103.054,VALID,0,VALID,23.9863,VALID,47,VALID,0,
2014-03-15, 03:35:04,VALID,1009.32,VALID,0,VALID,103.192,VALID,0.112112,VALID,23.965,VALID,47,VALID,0,
2014-03-15, 03:36:04,VALID,1009.3,VALID,0,VALID,103.146,VALID,0,VALID,23.9668,VALID,47,VALID,0,
2014-03-15, 03:37:04,VALID,1009.33,VALID,0,VALID,103.154,VALID,0,VALID,23.965,VALID,47,VALID,0,
2014-03-15, 03:38:04,VALID,1009.28,VALID,0,VALID,103.176,VALID,0,VALID,23.965,VALID,47,VALID,0,
2014-03-15, 03:39:04,VALID,1009.29,VALID,0,VALID,103.115,VALID,0,VALID,23.9881,VALID,47,VALID,0,
2014-03-15, 03:40:04,VALID,1009.27,VALID,0,VALID,102.925,VALID,0,VALID,23.9473,VALID,47,VALID,0,
2014-03-15, 03:41:04,VALID,1009.24,VALID,0,VALID,102.81,VALID,0,VALID,23.9278,VALID,47,VALID,0,
2014-03-15, 03:42:04,VALID,1009.22,VALID,0,VALID,102.856,VALID,0,VALID,23.9278,VALID,47,VALID,0,
2014-03-15, 03:43:04,VALID,1009.25,VALID,0,VALID,102.902,VALID,0,VALID,23.9084,VALID,47,VALID,0,
2014-03-15, 03:44:04,VALID,1009.28,VALID,0,VALID,103.07,VALID,0,VALID,23.9084,VALID,47,VALID,0,
2014-03-15, 03:45:04,VALID,1009.27,VALID,0,VALID,103.283,VALID,0,VALID,23.8889,VALID,47,VALID,0,
2014-03-15, 03:46:04,VALID,1009.31,VALID,0,VALID,103.565,VALID,0,VALID,23.8889,VALID,47,VALID,0,
2014-03-15, 03:47:04,VALID,1009.31,VALID,0,VALID,103.809,VALID,0,VALID,23.8889,VALID,47,VALID,0.398438,
2014-03-15, 03:48:04,VALID,1009.34,VALID,0,VALID,104,VALID,0,VALID,23.9084,VALID,47,VALID,0.579297,
2014-03-15, 03:49:04,VALID,1009.33,VALID,0,VALID,104,VALID,0,VALID,23.9084,VALID,47,VALID,0.579297,
2014-03-15, 03:50:04,VALID,1009.36,VALID,0,VALID,104,VALID,0,VALID,23.9278,VALID,47,VALID,0.533203,